Location: Warszawa
(52.2500°N, 21.0000°E)
Time: 23:17:26
(UTC+01:00)

A-11 Canister half - Pass Details

Date: 10 February 2023
Orbit: 1526 x 1682 km, 47.3° (Epoch: 22 March)

Event Time Altitude Azimuth Distance (km) Brightness Sun altitude
Exits shadow 05:28:40 13° 245° (WSW) 3,475 10.3 -14.6°
Maximum altitude 05:37:04 63° 169° (S) 1,686 9.3 -13.4°
Drops below altitude 10° 05:46:16 10° 92° (E) 3,737 12.5 -12.0°
Sets 05:49:24 0° 89° (E) 4,738 13.5 -11.5°
